Wind_Speed
3 4 2 2 4 4 3 2 5 7 11 13 9 7 9 8 5 5 6 6 6 5 5 5 6 6 6 4 6 8 10 11 12 14 14 12 11 11 12 13 16 17 17 17 16 15 14 14 14 15 14 12 13 14 14 14 15 15 14 13 14 14 12 11 11 10 10 9 8 7 6 6 6 7 6 6 5 6 6 7 7 8 8 8 8 8
4 4 3 6 7 5 2 5 10 11 12 12 10 9 7 6 5 3 6 6 4 3 4 3 5 6 5 4 6 8 8 9 11 10 11 12 12 14 16 17 18 17 16 16 15 14 14 14 14 15 15 14 15 15 15 15 15 15 14 14 14 14 13 14 13 12 13 13 12 12 11 9 8 8 7 7 6 6 7 7 8 8 8 8 7 7
4 1 7 6 5 5 6 9 13 12 11 9 7 8 6 5 7 5 3 3 1 2 4 2 4 5 4 3 6 8 6 6 8 6 8 13 11 10 14 15 15 15 14 13 13 12 12 12 13 14 16 16 16 17 16 15 15 15 15 14 14 14 13 14 13 13 13 13 12 12 12 12 11 11 11 10 8 7 7 7 7 8 8 8 8 8
3 3 7 2 10 11 8 8 11 9 6 6 7 8 7 7 7 3 1 0 3 4 5 5 4 3 3 3 4 6 4 5 7 5 8 11 7 6 11 11 11 13 13 12 11 9 9 10 11 13 15 16 17 17 17 16 16 16 15 15 14 13 13 13 13 13 12 11 11 11 11 12 12 12 11 10 10 9 8 8 8 8 8 8 7 8
3 5 5 10 11 9 8 8 9 8 4 3 6 9 8 8 7 7 4 4 7 5 4 6 4 3 3 4 3 3 3 4 6 7 10 10 7 9 13 12 11 12 13 12 10 9 8 9 10 11 13 14 16 17 16 15 15 15 15 14 13 13 13 13 13 12 11 10 10 10 10 10 10 10 10 9 10 9 9 9 9 9 9 9 9 8
5 7 11 12 9 8 7 5 5 7 5 2 2 8 13 13 10 11 11 8 6 1 4 3 4 3 4 4 2 3 3 3 4 5 8 8 7 12 16 15 14 14 13 11 9 9 8 9 8 9 10 13 15 15 13 13 13 13 13 12 12 13 13 14 13 13 12 11 11 11 10 11 11 11 12 12 12 10 10 10 10 10 9 9 9 9
3 7 11 10 8 8 6 4 2 4 7 3 2 10 15 16 14 13 11 6 4 3 5 2 4 1 4 3 1 2 2 3 2 1 4 5 8 12 15 15 16 16 14 11 10 9 8 9 8 9 10 11 12 11 10 11 12 12 12 14 14 14 15 14 14 14 14 14 15 15 14 14 14 14 14 13 12 11 10 9 9 10 10 9 8 8
1 7 10 10 8 7 5 3 0 4 8 3 5 13 16 15 14 11 8 4 3 3 1 2 4 3 2 4 1 4 0 2 1 4 6 9 10 12 13 14 16 16 14 12 11 10 9 8 8 10 10 10 10 8 8 11 13 13 13 14 15 15 16 16 16 16 17 18 18 18 17 17 17 17 16 15 13 12 10 9 9 10 10 10 10 9
1 6 8 9 8 5 3 4 4 7 7 3 6 12 13 12 10 8 5 3 2 4 2 2 2 4 2 4 2 3 2 3 5 6 7 10 11 12 12 13 17 17 14 13 12 10 9 8 9 10 11 10 9 9 10 10 12 13 13 14 14 15 16 16 16 17 18 19 19 19 18 18 17 17 17 17 16 15 14 12 11 11 12 12 11 11
1 7 11 10 6 4 4 6 8 8 5 5 7 9 8 6 6 5 5 3 4 4 2 5 2 5 1 3 2 2 3 4 6 5 8 14 13 12 12 15 20 18 15 14 13 10 9 9 10 10 11 10 10 10 11 10 10 11 12 13 14 14 15 15 16 16 17 17 18 19 18 18 17 16 16 17 16 16 17 16 15 14 15 15 15 14
2 8 11 8 5 7 7 6 8 10 9 9 8 7 6 5 4 4 3 3 5 2 4 5 4 4 0 3 4 4 5 6 6 4 9 15 15 15 15 20 22 19 18 15 13 11 10 10 10 10 11 11 10 8 9 10 9 9 10 11 13 13 12 12 15 16 15 15 16 19 19 18 19 17 16 16 14 15 17 19 19 17 15 16 16 16
5 4 5 6 12 12 7 6 8 11 11 8 5 5 5 4 4 4 4 4 5 1 5 5 5 4 2 4 6 6 5 7 8 6 9 12 15 20 23 25 24 21 19 16 14 14 12 11 10 10 11 11 10 8 7 8 8 7 8 8 11 14 13 11 13 15 14 13 14 17 18 18 19 18 16 15 13 14 16 19 21 18 15 15 17 18
4 3 2 6 12 12 8 5 5 4 5 5 4 5 5 2 3 2 2 2 2 3 4 5 6 2 1 4 6 8 6 9 13 12 14 13 15 25 28 27 26 23 19 17 16 15 13 11 10 9 10 10 10 9 7 6 5 6 8 7 7 13 15 13 12 12 11 12 14 17 19 18 18 17 15 13 13 14 17 19 21 18 15 17 19 21
3 5 3 3 4 9 10 6 3 1 1 5 5 4 4 3 2 0 1 1 1 2 2 4 5 1 3 3 4 9 9 15 20 19 19 16 18 29 30 28 27 22 19 18 17 16 13 12 10 9 9 9 9 8 7 5 4 6 9 8 7 10 14 12 10 10 11 12 14 18 20 19 18 15 12 12 13 16 18 18 17 16 15 17 21 21
2 3 2 1 2 6 6 6 8 6 4 5 4 5 4 4 4 2 3 2 2 2 2 2 3 1 2 3 4 10 14 20 20 17 16 13 17 29 30 28 27 22 20 20 18 15 12 11 11 8 7 7 6 5 6 4 3 6 8 9 9 10 10 7 7 9 9 10 15 19 20 20 17 12 10 11 13 16 18 16 15 15 15 16 19 18
5 2 6 2 1 4 4 5 7 7 2 3 2 4 1 3 5 3 3 4 4 2 2 2 1 1 2 3 2 5 10 14 12 10 13 14 21 31 31 28 27 23 22 21 18 15 12 11 10 8 8 6 4 4 5 5 3 6 8 8 9 9 7 3 4 5 7 11 17 19 20 21 15 9 8 10 12 15 16 14 14 16 15 14 16 16
4 2 6 3 3 2 2 1 3 5 2 2 2 2 4 3 7 5 1 1 4 4 1 1 1 1 2 3 4 2 3 7 9 13 19 24 28 31 29 28 28 26 25 22 17 14 11 11 10 8 7 5 3 4 6 5 3 5 6 5 6 7 5 2 3 4 9 14 17 18 20 20 15 10 9 9 12 14 14 13 14 16 16 14 15 15
4 1 5 1 4 2 5 6 6 5 3 4 2 4 2 3 4 5 3 2 4 3 1 1 3 2 1 1 2 3 5 5 7 12 18 23 26 27 27 30 30 27 24 19 15 13 12 11 10 8 5 4 4 5 7 5 3 5 5 4 5 6 4 4 4 6 12 15 16 18 20 19 16 14 12 10 12 13 13 15 16 16 16 15 16 15
4 3 5 3 3 2 8 8 5 8 7 4 3 1 2 3 1 2 3 2 2 2 1 2 1 2 2 4 5 6 8 8 6 9 13 16 19 23 28 31 29 26 22 18 15 13 11 10 9 8 5 4 5 6 7 5 3 5 5 4 5 5 5 5 4 8 13 15 16 17 18 18 15 14 13 12 12 12 12 14 14 14 15 15 15 14
3 5 2 6 3 2 5 5 2 5 6 3 2 4 3 3 3 1 1 3 4 3 1 1 1 2 3 6 8 10 10 9 7 6 9 15 21 25 29 31 29 26 22 20 17 12 10 10 9 7 3 4 7 7 6 4 3 5 5 3 4 5 5 4 4 9 13 14 16 16 16 17 14 12 11 10 10 11 11 12 12 12 13 13 13 14
3 4 1 5 6 4 2 1 2 2 2 4 4 4 4 2 2 2 1 1 4 5 3 2 1 4 5 4 9 11 9 8 10 7 10 19 25 27 30 31 29 26 22 19 15 11 11 11 9 6 3 7 11 9 6 5 4 6 6 2 3 4 4 3 6 11 13 15 15 14 14 15 13 11 11 11 10 11 12 13 13 13 14 15 15 16
2 3 3 1 4 4 0 3 1 4 5 4 3 1 1 1 3 4 2 3 2 4 4 5 3 5 5 3 7 10 8 10 14 12 15 22 25 25 28 29 26 23 20 16 15 14 13 11 9 7 4 8 13 10 8 6 4 6 5 2 3 2 2 4 8 12 14 15 14 13 13 13 12 11 12 12 11 10 11 12 13 14 15 16 16 15
2 4 4 2 1 1 1 4 5 5 5 6 3 1 2 2 4 5 2 1 2 3 2 4 3 4 6 2 7 9 8 12 18 21 22 24 26 25 26 25 22 19 17 17 18 17 12 7 8 9 7 9 14 12 9 6 4 5 5 3 2 1 2 4 9 12 13 13 13 12 12 11 12 13 14 12 10 11 12 13 14 15 15 15 15 15
2 4 4 2 3 3 4 6 7 8 6 5 3 2 3 2 2 5 4 3 3 3 2 4 2 4 5 0 10 12 11 15 22 26 27 27 27 25 24 23 21 19 18 20 19 13 7 7 10 12 11 12 15 12 8 6 5 5 5 3 1 1 2 4 9 12 12 11 10 11 11 11 13 15 14 13 12 13 14 15 16 15 15 15 16 17
1 2 4 3 3 5 6 6 7 7 4 2 2 4 4 3 4 4 2 3 4 2 3 5 1 5 6 1 10 13 13 17 23 29 30 28 28 26 24 24 24 22 22 20 15 10 9 10 12 15 14 14 14 11 8 5 3 4 4 2 1 1 1 4 8 11 10 9 9 11 11 12 14 15 15 14 14 14 15 17 17 17 18 19 19 19
2 2 3 5 3 1 0 2 2 2 2 2 3 4 5 6 5 4 2 4 3 1 3 5 4 3 3 2 7 9 10 13 18 24 26 26 27 27 26 27 26 25 22 17 13 12 12 12 13 15 16 15 13 11 8 5 4 4 4 3 3 2 1 4 7 8 7 7 9 12 13 14 16 16 16 16 16 16 18 19 20 21 21 22 21 21
4 3 2 6 6 5 6 5 4 3 2 1 2 5 6 6 6 6 4 4 3 2 4 1 4 3 3 2 4 3 4 6 10 15 18 22 26 26 26 26 24 23 19 15 15 15 14 14 14 15 16 14 12 11 8 5 5 5 6 5 4 2 2 4 5 6 6 8 11 13 15 17 17 16 17 17 18 20 22 23 24 24 24 23 23 23
4 3 2 6 5 6 7 5 3 4 5 4 2 4 5 5 7 7 5 4 5 5 3 3 4 6 1 2 4 2 2 3 6 10 14 19 23 24 24 23 22 20 17 16 16 17 16 16 15 15 15 13 12 12 8 5 6 7 7 6 4 1 2 4 5 5 6 8 11 14 17 18 18 19 19 20 21 23 25 25 26 26 25 24 23 23
6 2 1 4 2 3 4 3 2 4 4 4 5 5 5 6 7 7 4 5 6 6 4 5 6 7 4 4 5 6 7 6 5 6 10 15 18 21 23 22 22 20 18 18 18 18 18 18 16 16 15 13 12 10 7 7 9 9 8 6 2 2 2 3 4 4 6 9 12 16 19 20 21 22 21 22 23 25 26 26 27 27 26 23 21 22
5 0 3 3 3 1 2 1 1 4 3 2 2 4 6 7 7 6 3 4 6 6 6 6 7 6 5 6 7 7 8 8 8 8 5 6 12 20 23 23 22 20 18 17 15 15 15 16 16 16 14 12 10 9 7 8 9 8 7 4 2 2 2 3 4 5 8 11 14 18 20 22 23 23 23 23 24 26 27 27 27 27 26 23 20 21
4 1 3 3 4 3 4 2 2 4 6 4 4 3 6 6 5 4 3 4 7 6 5 7 8 3 5 4 6 6 9 11 12 14 12 8 6 18 21 17 14 13 11 9 6 4 5 7 10 13 13 11 10 10 10 8 6 5 5 3 2 2 2 4 5 8 10 13 16 19 21 23 25 25 24 23 24 25 26 27 27 27 26 23 19 19
3 1 2 5 4 3 5 2 1 4 8 7 6 3 4 5 4 1 2 4 6 7 6 7 6 3 4 5 8 9 12 13 12 13 15 15 12 11 11 9 8 9 9 9 9 9 9 9 10 11 12 11 11 11 9 5 4 4 4 3 3 3 4 6 8 10 12 14 17 19 21 23 25 26 24 22 23 24 25 26 26 27 26 23 20 19
3 3 1 3 3 4 6 1 1 5 7 4 3 2 3 3 3 2 2 2 5 7 6 5 4 6 5 9 8 6 9 10 9 11 16 19 20 18 16 15 14 14 12 11 10 10 11 11 11 11 11 9 9 7 4 3 3 4 4 3 4 5 7 9 10 12 13 16 17 19 21 24 25 25 23 23 23 23 24 25 25 25 25 23 20 19
3 5 2 3 3 3 5 3 5 5 2 3 6 5 6 5 6 5 3 1 3 4 4 5 4 4 6 9 8 7 10 11 9 12 17 20 21 20 18 16 15 13 12 11 10 11 11 10 10 9 7 4 2 1 2 3 4 5 5 5 6 7 9 10 12 14 15 17 18 20 22 24 25 24 24 24 24 25 25 25 25 24 23 23 22 20
3 4 1 1 4 1 3 6 5 1 5 6 6 2 5 8 8 7 4 1 2 7 8 7 6 7 9 12 14 16 17 16 15 16 17 17 18 18 18 17 15 14 14 14 13 12 10 9 8 6 5 4 4 5 4 4 5 6 7 8 9 9 10 11 13 15 17 18 20 22 23 24 24 23 24 25 25 26 26 27 27 26 24 24 24 22
4 4 2 2 2 1 3 4 2 4 6 5 6 3 4 5 5 7 6 5 2 4 9 9 7 9 12 16 19 20 20 19 18 16 15 14 13 13 15 16 15 13 13 13 12 11 9 7 6 5 5 4 4 4 5 5 5 6 8 9 9 10 11 12 14 16 18 20 22 22 22 23 23 23 25 26 26 26 26 27 27 27 26 24 24 24
6 4 2 2 1 2 3 1 1 2 4 5 4 1 2 1 3 5 4 2 6 3 7 9 7 8 12 17 21 21 19 17 14 11 12 11 8 8 10 11 11 10 8 8 7 6 5 3 2 3 4 3 3 4 4 5 5 6 8 7 7 9 11 13 15 17 20 22 23 22 22 23 23 24 25 26 25 25 25 26 27 27 25 24 24 24
6 3 3 3 1 2 4 2 2 2 3 5 6 5 2 3 6 7 6 1 6 3 11 13 9 10 12 14 18 19 14 9 4 4 10 10 6 6 8 7 5 4 3 2 1 0 1 2 3 4 4 2 2 3 5 6 6 8 9 8 9 11 13 14 17 20 22 23 23 22 23 23 23 25 25 25 24 24 25 25 26 26 25 24 24 24
7 4 5 4 2 2 4 3 2 2 4 6 8 6 2 6 7 7 6 2 6 5 13 15 13 13 13 13 15 15 9 4 2 6 10 10 6 6 6 3 1 1 2 2 3 4 4 5 4 4 4 3 4 6 7 7 9 10 11 11 12 14 16 17 19 21 22 23 22 23 23 23 24 26 26 25 25 25 25 25 25 25 25 25 24 25
5 4 4 2 1 1 3 2 2 3 3 5 6 5 4 7 7 7 3 5 8 10 13 15 15 14 14 14 14 11 6 4 6 8 11 10 7 7 7 5 4 5 5 5 5 4 5 6 6 5 5 6 7 8 8 9 10 11 12 12 14 16 18 18 19 20 21 21 22 23 24 25 26 27 27 27 26 26 27 27 26 25 26 25 24 25
2 3 2 2 2 1 3 1 2 3 4 5 5 4 6 6 6 4 2 7 12 14 12 13 15 13 13 14 12 8 6 7 8 10 12 11 9 9 9 8 7 6 5 5 4 5 6 8 8 8 8 7 7 8 8 9 11 11 12 13 15 17 18 17 18 20 20 21 22 23 24 25 26 27 28 29 29 29 29 28 27 26 26 26 25 26
1 1 1 2 2 1 2 3 1 3 4 5 6 6 6 4 1 4 5 7 14 14 10 11 13 12 12 12 10 9 10 11 12 12 13 12 10 9 10 9 8 7 6 5 6 7 8 9 9 8 7 7 7 7 8 9 11 11 12 13 14 16 16 17 19 20 21 22 23 24 25 26 26 28 29 30 31 31 31 29 28 27 27 28 28 28
3 3 1 2 3 1 2 3 1 2 6 9 7 4 2 3 5 6 6 10 14 11 7 11 13 12 12 11 11 12 13 13 14 13 12 11 9 8 8 8 8 8 8 7 8 9 8 9 8 7 6 6 7 8 9 10 10 10 11 13 15 16 17 18 19 20 21 22 24 25 26 27 28 29 31 32 32 33 32 30 29 28 27 28 30 31
2 3 2 3 2 3 2 2 4 4 9 15 12 5 5 8 9 10 11 12 11 8 6 11 14 13 11 9 10 11 11 12 13 11 9 8 7 7 8 8 9 9 9 9 10 9 9 9 8 7 7 8 8 9 10 10 11 12 13 15 16 16 18 18 19 20 22 24 26 27 28 29 29 29 30 30 31 31 30 30 29 28 27 29 31 32
3 3 4 2 2 4 4 5 6 5 9 18 17 10 9 12 12 13 13 11 9 8 11 15 15 12 10 10 8 8 9 10 9 8 7 7 7 7 8 9 10 10 10 10 10 10 9 8 8 9 9 9 8 10 11 11 12 13 14 15 15 16 17 18 19 21 23 25 25 25 25 25 24 23 23 23 24 25 27 28 27 27 29 30 30 30
3 1 4 2 0 0 1 2 3 4 7 16 17 11 11 14 13 12 11 9 11 12 13 15 14 11 10 11 9 7 8 8 7 7 9 8 6 5 6 6 7 9 9 10 10 10 9 8 9 10 10 9 9 10 11 11 12 14 15 15 15 16 17 18 19 20 21 21 19 18 18 19 20 21 22 22 21 21 21 23 25 27 31 31 29 28
2 3 2 1 2 2 2 5 6 5 8 11 12 11 13 15 12 10 10 11 14 15 13 12 14 12 9 9 8 8 9 9 7 7 8 6 3 2 2 0 1 4 6 8 9 9 9 8 8 9 9 9 9 10 10 10 11 13 14 15 15 16 17 17 17 17 16 16 15 16 19 22 25 28 27 22 17 16 18 22 26 30 31 30 29 29
1 3 1 0 2 2 2 2 4 3 2 7 9 10 13 15 12 10 10 10 12 13 11 11 13 11 7 6 8 9 10 10 10 10 9 7 5 4 4 3 3 2 4 6 7 7 6 6 7 7 8 8 8 8 8 8 8 10 12 13 13 14 14 14 14 14 15 16 19 22 25 27 29 29 24 17 15 19 24 28 31 33 32 29 28 30
3 1 0 1 2 2 2 1 6 9 6 5 8 10 12 13 12 12 12 11 10 10 9 8 8 7 6 6 8 11 12 11 11 9 8 7 6 6 6 6 6 4 1 2 3 3 3 5 6 6 6 6 5 5 6 7 7 9 10 10 11 12 14 15 16 17 20 23 26 28 29 28 27 26 22 18 19 25 29 32 33 34 32 28 26 28
3 1 1 3 2 2 3 3 2 3 2 6 10 11 10 12 13 12 11 10 9 9 9 8 8 9 8 7 9 13 14 12 10 8 6 5 5 7 7 7 6 5 2 0 0 2 4 4 3 3 3 3 4 5 6 7 7 8 9 10 12 15 17 19 20 22 24 27 29 29 27 26 26 25 22 22 25 29 33 35 35 34 31 28 26 27
3 5 4 5 3 4 6 5 4 6 8 10 10 9 9 10 10 8 8 8 8 9 8 7 7 8 8 9 11 13 13 12 9 6 4 4 5 5 6 6 6 5 4 2 1 2 2 2 2 2 3 3 5 6 7 8 9 10 11 13 15 17 19 20 22 25 28 30 29 27 25 24 24 24 25 26 29 33 36 38 38 35 30 26 26 27
Wind_Direction
66 56 4 248 245 250 235 138 128 123 117 121 112 105 120 115 116 145 148 174 164 109 38 37 83 79 66 51 41 73 85 73 77 81 83 103 115 112 116 119 113 102 97 94 88 82 73 64 58 55 59 64 63 61 61 62 61 60 59 58 59 57 57 61 61 59 62 65 63 55 47 31 23 22 23 16 1 355 353 348 340 333 336 332 322 318
59 65 285 240 222 230 223 110 102 101 104 108 111 108 102 101 105 114 130 159 198 113 69 48 80 64 46 48 34 61 82 51 57 92 113 116 120 120 114 111 108 102 100 95 87 80 73 67 59 53 55 57 58 60 61 62 63 64 63 62 60 57 57 57 56 54 56 59 62 63 59 55 48 39 34 23 12 2 353 347 343 342 341 338 332 325
39 38 275 250 158 99 74 95 100 103 108 106 113 110 96 106 94 49 67 138 237 94 108 97 83 58 33 61 46 51 75 62 66 92 95 91 100 113 113 111 107 100 96 90 84 79 71 63 54 49 51 54 58 60 59 60 63 66 67 66 64 61 60 59 58 56 56 57 60 64 64 65 65 57 51 43 34 23 7 356 349 346 343 339 335 327
52 291 295 63 103 97 80 84 95 97 99 104 118 113 119 146 127 97 265 110 45 68 121 122 93 53 23 41 53 54 72 90 89 86 93 106 119 121 118 120 118 111 104 99 96 92 83 67 53 49 51 56 59 56 54 54 59 64 66 67 67 66 64 63 63 60 60 61 60 63 65 66 68 64 61 58 52 46 38 30 21 17 9 359 348 336
36 333 29 77 88 95 88 78 92 98 77 82 124 128 137 153 140 132 143 98 62 56 127 121 71 358 358 2 354 23 43 82 97 120 132 139 158 147 134 133 135 129 121 118 114 105 90 70 55 48 49 54 55 54 50 46 51 58 61 64 65 65 65 65 67 68 68 69 68 68 69 68 68 65 59 53 48 42 37 31 29 30 28 24 16 2
19 26 67 81 79 84 89 86 101 114 109 68 93 131 139 139 129 123 123 109 83 76 221 132 67 317 320 351 333 1 14 46 83 142 150 143 146 148 145 142 140 135 131 128 119 107 90 76 64 49 50 55 57 58 51 41 46 54 55 58 62 63 64 64 65 66 66 65 65 63 61 58 54 51 45 37 32 28 24 21 18 19 22 27 27 22
9 41 72 87 90 85 81 82 85 110 107 82 101 123 130 131 130 137 138 128 126 186 227 157 112 240 309 318 248 78 355 345 36 219 201 177 164 154 150 148 144 138 135 128 115 105 91 79 70 64 70 70 64 59 50 43 47 55 55 55 59 61 62 64 64 64 62 59 58 56 55 53 47 44 41 35 29 25 21 17 15 15 14 14 16 18
21 56 70 80 81 73 69 76 90 105 99 112 152 126 126 131 137 151 146 129 160 158 53 52 109 114 313 282 184 111 296 298 270 254 237 209 189 165 159 157 149 142 136 128 119 108 93 78 70 75 85 83 73 64 56 51 50 56 60 59 60 60 58 59 62 62 59 55 53 53 52 49 43 36 31 30 27 25 23 18 19 20 16 11 9 3
175 84 89 89 81 74 95 129 133 101 98 165 160 126 130 136 139 146 122 92 104 102 56 314 83 93 291 284 64 91 249 261 249 245 233 220 196 170 171 163 148 142 136 133 127 117 105 92 87 91 94 90 81 69 61 57 54 55 60 62 60 57 55 54 54 53 49 46 43 42 43 41 37 31 26 23 19 16 15 15 19 20 14 10 7 3
157 119 119 109 101 121 136 134 120 100 103 149 129 113 117 115 115 114 105 88 59 78 199 243 137 101 282 270 121 161 228 229 237 235 233 229 205 185 183 161 147 143 140 139 133 126 115 104 104 107 104 96 86 72 64 63 62 56 53 56 55 54 52 49 48 47 42 37 31 28 30 30 27 23 22 18 15 10 6 6 11 15 12 5 359 359
78 112 113 109 131 149 143 115 111 120 127 122 104 90 80 54 47 68 77 87 71 24 246 221 177 125 142 246 193 193 209 198 203 210 226 221 200 191 181 158 150 146 142 143 140 136 125 114 114 111 104 99 96 88 72 68 69 58 49 51 53 51 50 49 49 49 44 36 26 19 18 19 14 10 12 13 12 7 1 359 359 5 9 1 356 354
11 44 72 121 139 135 115 79 98 118 119 108 90 91 87 31 13 25 3 39 85 260 258 204 177 120 112 233 211 208 217 181 179 196 210 205 184 175 167 155 152 149 146 149 148 146 139 130 123 110 100 95 100 109 95 80 75 60 53 56 54 46 46 50 49 49 46 35 23 12 9 10 7 5 7 6 4 359 356 353 349 353 358 353 353 350
356 338 37 126 137 128 109 81 78 72 74 89 96 94 88 45 17 22 341 8 112 238 251 172 151 110 226 238 196 193 203 178 186 202 204 197 165 156 157 154 154 153 152 156 155 155 152 145 135 121 111 98 98 113 122 109 79 57 51 50 53 46 43 50 55 51 37 24 17 8 4 3 2 6 7 358 354 349 345 343 341 344 346 346 351 351
335 319 5 80 129 136 128 118 122 260 120 132 141 123 109 111 94 40 257 332 138 218 241 139 114 51 289 285 185 178 182 180 190 202 203 198 159 149 154 156 156 156 158 161 163 160 156 152 144 129 118 108 99 105 125 127 77 60 53 47 56 51 45 51 52 34 20 17 10 4 4 1 357 3 6 353 348 346 345 346 347 347 346 350 357 360
95 326 308 90 182 158 145 161 168 166 162 181 176 129 129 155 142 171 198 173 163 197 305 28 62 111 225 279 210 169 171 179 191 204 202 196 163 153 156 158 158 160 163 167 166 157 151 150 145 132 122 122 115 110 132 143 92 73 68 58 51 50 54 57 33 16 17 16 6 3 7 4 357 360 5 356 348 351 358 3 1 356 353 356 0 1
102 239 254 260 211 144 147 194 160 118 122 228 161 99 164 200 140 129 169 163 150 122 5 12 16 202 197 291 355 126 168 177 171 166 158 156 156 156 157 159 161 165 168 168 162 152 147 146 144 138 131 136 148 152 157 160 120 86 80 61 41 51 75 72 20 23 24 12 7 8 9 7 5 4 8 5 355 356 3 5 0 358 356 356 357 355
87 275 275 335 21 98 146 239 108 103 166 215 98 172 236 172 121 114 112 81 87 89 12 16 61 338 5 352 11 59 195 171 134 133 136 137 145 150 153 159 165 168 168 164 156 148 142 142 148 146 138 150 186 194 181 172 124 91 88 66 52 74 95 64 35 34 17 12 14 15 13 14 19 23 18 7 359 0 4 3 358 358 356 351 348 347
125 226 285 23 79 20 358 17 44 52 81 111 158 227 235 67 82 103 104 30 55 91 276 40 124 165 68 343 240 202 200 178 147 146 141 138 140 143 151 161 166 166 162 157 148 140 134 136 150 155 151 179 204 202 189 177 130 105 108 96 85 84 71 56 53 24 14 16 18 18 18 20 24 31 32 20 12 12 9 6 3 2 1 356 351 346
107 109 295 308 111 25 5 31 33 3 28 107 183 236 90 90 10 40 112 148 115 118 283 359 90 187 176 196 198 191 196 188 175 166 149 142 139 140 151 160 162 161 158 154 146 138 134 135 151 162 161 186 195 191 186 176 134 129 130 114 95 64 50 69 52 16 15 17 17 20 24 22 20 29 35 29 23 15 6 6 8 7 3 360 359 352
84 109 289 305 324 30 18 41 43 328 348 36 35 10 45 131 154 157 144 150 134 135 159 67 332 258 224 201 181 187 200 185 179 187 154 145 144 145 154 160 161 161 159 155 148 142 143 143 147 154 156 182 180 175 177 164 130 148 154 119 79 55 63 80 36 18 18 17 17 20 24 23 20 23 29 28 21 9 3 4 3 2 359 355 354 348
51 85 133 298 332 29 27 326 171 179 18 26 32 13 347 352 76 88 57 75 121 134 147 136 196 264 255 200 178 190 198 177 180 181 140 147 150 148 155 160 161 163 161 160 160 161 158 149 139 140 160 188 181 169 162 155 142 168 176 120 72 75 84 71 27 24 23 19 20 19 19 19 17 18 20 19 15 9 6 2 356 354 350 347 347 345
69 85 112 333 5 55 42 283 168 137 119 112 107 55 339 25 72 80 29 334 79 119 146 141 150 264 263 197 179 188 181 173 179 161 139 151 153 149 156 161 162 166 167 171 178 173 164 152 146 156 185 196 189 179 166 163 158 167 173 129 99 110 83 41 25 26 24 21 21 19 17 17 16 18 18 15 14 11 7 2 356 351 345 344 346 345
97 101 90 64 48 128 314 9 49 68 87 100 91 93 129 95 91 114 137 305 34 58 94 111 110 263 268 199 173 182 170 164 164 152 146 155 157 158 165 165 167 178 182 183 180 171 167 172 175 181 191 188 187 187 178 175 165 155 162 155 131 95 18 28 24 23 25 22 19 18 19 18 17 17 15 13 10 3 360 356 352 347 343 342 342 339
51 81 77 37 320 314 331 1 23 26 49 69 26 19 86 65 105 139 153 144 74 29 72 83 65 264 287 143 154 160 145 142 151 152 154 161 166 170 173 173 179 189 188 182 178 174 186 211 201 195 196 189 190 197 189 175 169 156 155 162 159 328 357 24 22 24 28 26 22 20 20 18 14 12 9 5 359 354 354 353 350 348 344 341 338 335
44 92 87 69 4 350 348 350 360 1 18 71 354 357 46 55 70 84 83 86 62 25 130 113 143 248 286 10 139 145 136 140 153 158 161 168 174 178 179 180 185 186 184 182 183 193 211 217 207 202 205 205 203 203 190 181 201 187 174 200 239 250 336 18 24 33 37 31 24 20 16 11 7 3 360 355 352 350 351 350 347 344 341 338 336 333
99 126 109 112 124 143 205 295 295 308 332 355 347 4 36 45 58 82 76 67 67 31 87 111 170 231 309 59 126 142 143 150 163 166 169 174 177 179 179 181 185 185 185 192 199 205 214 220 216 208 211 216 213 204 198 218 249 226 216 230 222 229 320 15 28 36 36 22 16 12 9 5 360 356 354 351 349 349 348 346 344 342 341 340 337 335
86 73 92 130 151 175 182 217 223 157 103 44 3 26 46 53 65 93 94 87 135 111 48 138 173 106 19 66 120 143 154 163 179 179 179 179 178 181 182 182 188 191 194 202 206 208 215 223 221 211 211 219 216 210 221 251 250 223 225 221 203 217 349 18 18 16 13 10 11 9 7 4 358 354 352 350 349 347 346 346 345 346 345 343 341 339
87 48 71 129 156 198 189 206 221 123 127 172 158 72 69 72 70 80 97 136 140 98 47 251 156 106 146 186 131 143 160 180 208 203 195 188 185 185 186 187 193 198 202 206 208 214 221 225 224 213 210 215 215 219 234 240 217 215 219 209 199 281 344 359 355 2 10 9 7 4 2 360 355 352 350 347 347 346 346 348 349 349 348 345 345 346
105 92 196 131 133 228 203 190 123 111 136 166 152 136 121 108 100 99 131 163 138 121 176 200 132 126 189 194 158 168 167 168 192 206 210 208 199 189 188 194 199 200 203 207 211 220 226 227 225 214 209 212 216 222 224 210 208 214 214 208 231 302 316 335 342 2 9 1 359 358 356 354 352 351 348 345 347 347 348 349 350 352 353 352 354 357
98 209 239 117 86 317 275 262 95 105 122 98 106 149 141 128 124 115 131 146 112 116 159 154 127 148 207 206 193 185 164 145 113 94 118 194 204 196 192 197 202 202 206 212 220 231 235 233 228 219 213 212 215 212 201 199 208 213 216 226 263 285 292 322 336 352 354 352 354 354 351 349 350 351 349 349 350 350 349 347 346 350 354 355 359 4
80 222 242 93 76 326 313 313 21 83 107 83 36 81 113 106 94 83 101 111 91 97 136 126 122 171 246 209 169 135 120 112 93 84 84 86 172 201 200 200 204 204 205 206 208 212 207 204 210 211 206 201 200 195 185 189 206 216 226 247 265 272 294 313 325 338 345 348 352 349 346 345 347 350 353 356 357 354 353 351 348 350 353 353 356 1
73 132 321 63 82 287 288 267 305 55 80 62 20 39 100 98 99 115 154 138 127 134 132 107 117 207 235 133 110 97 100 102 91 87 89 88 104 152 167 154 145 142 138 138 137 136 138 144 163 182 183 179 182 185 184 195 222 229 240 257 265 280 299 310 320 332 340 345 345 342 341 343 345 348 353 357 358 356 355 355 353 351 349 349 351 355
96 99 39 82 108 274 283 240 40 38 53 24 316 206 149 113 115 112 49 108 143 143 138 137 173 214 182 123 108 92 96 102 99 95 100 103 101 102 106 108 114 122 124 130 137 137 137 139 148 159 163 165 175 186 209 247 245 243 258 277 288 294 300 308 319 329 335 337 337 337 339 341 341 345 348 348 349 349 348 351 354 351 347 347 350 351
78 96 129 127 117 271 299 37 57 40 53 246 248 206 171 150 137 122 91 145 167 138 133 147 157 175 150 124 123 120 106 107 116 108 107 111 108 101 102 106 113 122 128 132 135 133 132 133 134 138 139 139 142 4 327 291 276 281 289 299 300 295 298 309 319 325 327 330 333 335 337 337 336 340 344 344 342 341 341 343 348 350 349 350 351 350
70 79 123 90 95 152 344 47 63 287 235 243 280 275 147 140 135 120 77 10 141 121 115 116 130 152 144 126 123 121 111 109 114 112 108 112 112 106 101 103 111 121 129 131 126 121 119 116 111 102 85 68 38 10 347 311 300 302 310 313 303 293 299 310 316 319 322 327 332 333 333 333 335 338 342 342 339 338 338 339 342 346 347 349 350 349
116 101 96 68 88 85 35 64 131 239 255 287 322 342 115 106 97 88 49 348 300 137 130 136 161 164 139 125 128 127 121 117 113 108 108 108 107 104 100 100 104 109 118 124 119 111 108 101 86 68 47 29 5 342 325 311 303 309 320 317 299 291 300 308 312 317 321 326 329 329 328 330 334 338 340 339 338 337 337 337 339 341 342 343 345 345
122 117 85 65 93 103 88 103 242 308 312 315 317 280 161 162 156 127 109 297 284 237 148 143 166 168 138 127 132 134 128 119 108 107 117 115 103 101 101 100 98 93 101 116 117 109 104 80 26 346 326 319 311 304 307 309 306 315 327 320 300 298 305 310 313 316 320 323 324 324 325 328 331 335 336 336 335 334 332 333 336 337 336 337 338 338
98 120 131 116 72 87 97 82 21 14 298 256 248 257 255 174 158 132 113 334 293 235 147 138 151 162 141 130 139 143 132 109 92 135 138 131 122 117 115 109 95 71 60 96 113 67 314 308 308 303 295 281 276 296 315 326 325 327 332 327 317 314 313 313 314 316 319 321 320 319 321 325 327 328 330 331 330 327 324 325 329 332 333 332 331 331
54 59 101 98 40 67 101 112 168 206 245 239 240 255 213 140 128 96 78 324 277 204 146 141 151 152 134 130 144 145 125 99 232 204 165 154 152 142 141 146 157 274 265 259 276 290 296 302 311 317 315 313 316 317 325 329 326 324 325 325 321 318 316 315 316 319 320 319 318 317 319 322 322 322 323 324 323 320 317 317 320 326 330 330 330 328
31 26 58 72 330 120 111 116 207 225 239 236 240 237 168 132 100 79 54 274 237 193 162 153 154 147 133 133 141 140 134 163 203 193 174 169 170 171 188 214 218 212 218 230 250 275 296 305 311 317 321 324 321 317 315 314 312 312 316 318 317 316 316 317 318 320 319 317 319 321 321 320 318 316 317 318 318 314 311 312 315 320 325 328 329 327
1 15 66 132 183 156 120 130 264 261 241 226 221 184 143 105 77 98 218 231 202 189 181 168 160 155 148 146 147 151 158 161 161 163 168 176 180 187 202 211 206 208 226 245 266 289 304 307 307 306 307 312 310 305 302 300 300 305 310 313 315 317 319 319 319 318 317 317 320 322 321 318 315 314 314 316 315 311 308 310 312 316 322 325 325 323
193 20 58 147 177 181 133 130 251 283 245 198 176 158 138 105 119 211 208 185 181 186 189 181 172 161 152 150 148 150 150 147 151 160 172 185 193 195 202 208 214 231 248 257 274 291 300 300 297 291 288 296 304 305 303 299 301 307 311 310 314 320 320 316 315 314 313 314 317 320 320 317 316 315 315 315 314 309 307 309 311 314 320 323 320 318
166 154 228 228 189 147 57 77 88 279 233 194 168 146 143 164 187 185 162 166 184 194 195 187 178 161 152 150 145 147 151 153 160 166 172 186 201 212 221 233 250 261 260 260 270 281 289 289 284 278 281 295 306 310 311 307 305 308 311 312 317 323 321 318 317 317 315 314 316 319 319 318 319 318 317 316 314 309 306 309 310 313 320 322 319 316
135 140 187 240 192 126 84 181 195 220 207 189 181 190 204 189 177 164 156 165 183 197 199 188 180 172 171 166 150 153 161 161 166 176 184 198 219 238 251 262 268 264 261 267 273 277 283 283 276 278 291 301 305 311 315 313 310 313 317 319 321 323 323 323 323 321 318 318 318 319 318 318 320 320 319 319 317 311 309 310 311 314 320 322 320 318
233 193 165 174 185 164 174 219 238 246 203 192 196 205 190 177 171 167 165 164 171 184 184 174 169 172 184 183 169 166 174 175 178 192 205 215 232 249 261 266 265 262 266 273 276 279 284 281 275 280 292 300 308 317 320 317 313 317 321 320 319 321 323 324 323 320 319 320 320 319 318 316 317 319 322 326 326 320 316 312 310 315 321 323 323 322
248 198 145 134 35 182 37 338 299 268 211 197 199 198 181 178 180 177 171 157 151 160 166 164 162 161 169 182 185 176 173 178 185 202 214 222 236 249 256 258 256 259 265 270 275 280 278 272 274 283 292 302 314 320 320 314 312 317 321 319 317 319 319 318 317 315 314 316 318 320 320 319 321 324 326 328 328 327 323 318 317 321 324 325 328 328
331 36 94 93 55 88 9 344 332 289 248 214 198 191 187 187 188 181 169 158 153 156 159 165 170 166 162 178 188 174 164 166 166 171 183 187 168 136 122 106 265 260 267 277 283 280 273 269 278 289 296 306 319 325 324 321 320 321 320 316 313 313 313 313 314 313 315 319 323 324 325 326 330 334 332 329 327 328 328 326 327 327 326 325 329 332
344 25 10 29 81 142 225 311 22 34 231 201 192 196 191 185 188 186 176 167 160 156 154 160 171 175 176 186 186 170 158 153 148 142 134 125 111 93 73 45 18 331 280 275 269 260 260 272 289 300 306 317 330 335 333 330 323 313 309 311 315 320 323 325 326 326 327 329 328 329 330 332 335 336 334 331 332 334 332 330 329 328 327 327 329 332
150 50 278 138 56 349 286 358 73 73 79 129 157 174 178 177 183 184 178 175 170 166 169 180 191 206 226 224 197 175 155 142 141 136 121 107 88 57 40 30 25 23 331 246 237 248 286 307 313 322 332 339 340 331 318 312 307 305 311 318 325 329 332 333 334 334 333 334 335 337 337 338 338 336 333 330 331 333 334 333 330 328 327 326 327 329
149 194 154 102 70 300 247 221 119 87 119 146 144 149 159 165 168 170 173 180 187 193 200 205 212 222 226 214 188 171 155 141 139 138 119 89 54 34 31 31 33 34 31 197 7 353 348 344 343 350 352 338 317 302 297 300 307 316 323 328 330 331 332 333 335 336 337 339 341 340 339 337 335 333 331 330 329 330 332 333 332 328 324 323 325 328
211 214 181 142 159 218 216 198 162 150 166 167 157 158 170 171 172 180 183 181 190 204 208 211 222 219 197 173 170 169 158 143 138 133 96 42 22 31 46 43 33 26 19 18 44 22 6 8 12 358 335 315 305 303 307 313 318 323 328 330 331 332 333 334 337 338 340 342 341 338 335 333 332 331 330 329 328 329 330 330 330 326 320 317 321 326
Height
1508 1513 1516 1516 1515 1513 1512 1514 1517 1519 1522 1529 1535 1541 1545 1550 1556 1555 1551 1550 1548 1553 1563 1563 1563 1565 1565 1565 1563 1563 1563 1562 1564 1564 1564 1564 1566 1569 1570 1571 1572 1572 1572 1572 1572 1572 1571 1572 1572 1572 1573 1572 1572 1571 1570 1569 1568 1568 1567 1566 1565 1564 1564 1563 1562 1561 1560 1559 1557 1556 1555 1555 1554 1553 1552 1552 1551 1551 1550 1550 1549 1549 1548 1548 1547 1547
1510 1517 1517 1513 1513 1512 1511 1514 1518 1521 1524 1529 1536 1543 1548 1552 1555 1554 1551 1551 1548 1553 1564 1564 1563 1567 1567 1566 1565 1563 1563 1563 1564 1563 1564 1565 1566 1569 1570 1571 1572 1571 1572 1573 1573 1573 1572 1573 1573 1573 1573 1573 1572 1572 1571 1570 1570 1569 1569 1568 1567 1566 1565 1564 1563 1562 1560 1559 1558 1557 1556 1555 1555 1554 1553 1552 1552 1551 1551 1550 1550 1549 1548 1548 1547 1547
1516 1518 1515 1511 1511 1512 1514 1516 1519 1523 1526 1532 1537 1543 1551 1554 1555 1557 1554 1552 1551 1554 1563 1565 1566 1569 1568 1567 1567 1566 1565 1565 1565 1563 1564 1566 1567 1569 1570 1570 1571 1571 1572 1573 1573 1573 1573 1574 1574 1574 1574 1573 1573 1573 1572 1572 1571 1571 1570 1570 1569 1568 1567 1566 1565 1563 1562 1561 1560 1559 1558 1557 1556 1555 1554 1553 1553 1552 1551 1550 1550 1549 1548 1548 1547 1547
1521 1519 1512 1509 1510 1513 1517 1518 1520 1526 1530 1534 1538 1544 1553 1552 1552 1559 1560 1555 1553 1555 1562 1565 1566 1569 1568 1567 1567 1567 1567 1567 1567 1566 1566 1568 1569 1571 1571 1571 1571 1572 1573 1574 1574 1575 1575 1575 1575 1574 1575 1575 1575 1574 1574 1574 1573 1573 1572 1571 1570 1569 1568 1567 1566 1565 1564 1563 1562 1561 1560 1558 1557 1556 1555 1555 1554 1553 1552 1551 1550 1549 1548 1548 1547 1546
1519 1515 1510 1510 1512 1514 1518 1521 1522 1528 1534 1536 1536 1541 1549 1550 1549 1554 1557 1557 1558 1560 1560 1561 1567 1570 1568 1569 1569 1567 1568 1569 1569 1568 1569 1571 1572 1572 1572 1573 1574 1573 1574 1575 1576 1576 1576 1575 1575 1575 1575 1576 1576 1576 1575 1575 1575 1574 1573 1573 1572 1571 1570 1569 1568 1567 1566 1564 1563 1562 1561 1560 1558 1557 1556 1555 1554 1553 1552 1551 1550 1550 1549 1548 1547 1546
1517 1513 1511 1513 1515 1516 1519 1523 1524 1527 1534 1537 1536 1537 1542 1546 1549 1553 1555 1559 1568 1572 1562 1558 1570 1575 1570 1569 1570 1568 1568 1569 1569 1568 1569 1571 1573 1573 1573 1574 1575 1574 1575 1576 1576 1576 1575 1574 1575 1575 1575 1576 1577 1577 1577 1577 1576 1576 1575 1574 1573 1572 1571 1570 1569 1568 1567 1565 1564 1563 1561 1560 1559 1558 1557 1556 1555 1554 1553 1552 1551 1550 1549 1548 1547 1546
1517 1514 1513 1515 1517 1519 1521 1525 1526 1525 1532 1539 1538 1536 1539 1544 1549 1554 1556 1560 1570 1572 1560 1556 1568 1576 1573 1570 1569 1569 1569 1569 1569 1568 1569 1570 1572 1572 1572 1574 1574 1574 1575 1576 1576 1576 1575 1575 1575 1575 1576 1577 1578 1578 1578 1578 1578 1577 1576 1575 1574 1573 1572 1571 1570 1569 1568 1566 1565 1563 1562 1561 1560 1559 1558 1557 1556 1555 1554 1553 1551 1550 1549 1548 1547 1546
1517 1516 1517 1518 1519 1522 1525 1527 1526 1524 1531 1540 1538 1536 1541 1545 1549 1553 1553 1555 1560 1561 1559 1558 1562 1573 1578 1571 1568 1570 1571 1572 1571 1570 1570 1570 1571 1572 1572 1573 1574 1574 1575 1576 1577 1577 1576 1576 1576 1576 1577 1577 1578 1579 1579 1579 1579 1578 1577 1577 1576 1575 1573 1572 1571 1570 1568 1567 1566 1565 1563 1562 1561 1560 1559 1558 1557 1555 1554 1553 1551 1550 1549 1548 1547 1546
1517 1518 1520 1520 1523 1527 1527 1526 1525 1524 1531 1537 1534 1535 1540 1543 1547 1549 1550 1553 1554 1558 1565 1564 1560 1572 1581 1572 1568 1572 1572 1573 1571 1569 1569 1569 1570 1571 1572 1573 1574 1575 1576 1577 1577 1578 1577 1577 1577 1577 1577 1578 1579 1579 1580 1580 1579 1579 1578 1578 1577 1575 1574 1573 1572 1571 1569 1568 1567 1566 1564 1563 1562 1561 1560 1559 1557 1556 1554 1553 1551 1550 1549 1548 1547 1546
1517 1518 1519 1520 1524 1527 1526 1524 1523 1524 1530 1533 1532 1535 1538 1542 1546 1547 1550 1554 1556 1562 1569 1565 1561 1572 1582 1576 1572 1576 1575 1573 1570 1567 1567 1567 1569 1571 1572 1574 1575 1576 1577 1578 1578 1578 1578 1578 1578 1578 1578 1578 1579 1579 1580 1580 1580 1580 1579 1578 1577 1576 1575 1574 1573 1572 1570 1569 1568 1566 1565 1564 1563 1562 1560 1559 1557 1556 1554 1553 1551 1550 1549 1548 1546 1545
1516 1517 1517 1518 1522 1524 1523 1524 1524 1525 1528 1530 1533 1538 1541 1545 1546 1547 1552 1554 1561 1569 1566 1562 1562 1568 1577 1577 1573 1574 1571 1568 1568 1567 1566 1566 1568 1571 1573 1575 1576 1577 1577 1578 1578 1578 1579 1578 1578 1579 1578 1578 1579 1580 1581 1581 1581 1580 1580 1579 1578 1577 1576 1575 1574 1572 1571 1570 1568 1567 1565 1564 1563 1562 1560 1559 1557 1555 1554 1552 1551 1550 1549 1548 1546 1545
1518 1519 1519 1518 1520 1521 1523 1526 1527 1527 1528 1530 1535 1541 1546 1552 1552 1554 1557 1556 1567 1574 1562 1557 1561 1563 1571 1573 1568 1566 1563 1562 1564 1565 1563 1564 1568 1571 1573 1575 1576 1577 1577 1577 1578 1578 1578 1579 1578 1578 1578 1578 1579 1580 1581 1581 1581 1581 1580 1579 1578 1577 1576 1575 1574 1573 1571 1570 1569 1567 1566 1564 1563 1561 1560 1559 1557 1555 1554 1552 1551 1550 1549 1547 1546 1545
1523 1522 1522 1521 1521 1521 1525 1532 1535 1533 1532 1534 1539 1543 1552 1563 1565 1566 1568 1566 1569 1569 1558 1555 1559 1562 1567 1564 1560 1561 1560 1560 1561 1560 1560 1563 1566 1569 1572 1574 1576 1576 1577 1577 1578 1578 1578 1578 1578 1578 1578 1578 1578 1579 1580 1581 1580 1580 1579 1578 1578 1577 1576 1575 1574 1573 1572 1571 1570 1569 1567 1565 1564 1562 1561 1559 1557 1556 1554 1553 1551 1549 1548 1547 1545 1544
1531 1526 1522 1523 1525 1522 1524 1533 1540 1539 1537 1539 1541 1543 1552 1564 1572 1576 1577 1574 1571 1565 1557 1553 1556 1565 1567 1560 1556 1558 1558 1558 1558 1558 1560 1562 1566 1569 1570 1573 1575 1575 1576 1577 1577 1578 1578 1578 1578 1578 1578 1577 1578 1578 1579 1579 1579 1578 1578 1577 1577 1577 1576 1575 1574 1573 1572 1571 1570 1569 1568 1566 1564 1562 1561 1560 1558 1556 1555 1553 1551 1549 1548 1547 1545 1544
1538 1537 1527 1523 1525 1523 1523 1526 1530 1532 1535 1538 1535 1537 1544 1549 1557 1567 1570 1569 1570 1566 1560 1556 1560 1570 1570 1561 1556 1555 1556 1558 1558 1559 1560 1562 1566 1569 1570 1572 1574 1575 1576 1577 1577 1578 1578 1578 1578 1578 1578 1578 1578 1577 1577 1578 1578 1577 1577 1577 1576 1576 1576 1575 1573 1572 1571 1571 1570 1569 1567 1566 1564 1562 1561 1559 1558 1557 1555 1553 1551 1550 1548 1547 1546 1544
1537 1538 1526 1520 1521 1520 1522 1522 1521 1527 1535 1535 1531 1536 1540 1535 1539 1556 1563 1562 1564 1567 1567 1566 1569 1569 1565 1559 1557 1557 1558 1557 1559 1560 1560 1562 1564 1567 1570 1572 1573 1574 1575 1576 1577 1577 1577 1577 1576 1577 1577 1578 1577 1577 1576 1577 1577 1577 1576 1576 1575 1575 1575 1574 1573 1572 1571 1570 1569 1568 1566 1565 1563 1561 1560 1559 1558 1556 1555 1553 1552 1550 1549 1547 1546 1544
1538 1536 1523 1520 1521 1518 1520 1520 1519 1526 1533 1532 1533 1536 1532 1526 1531 1549 1563 1562 1561 1570 1575 1573 1573 1570 1565 1563 1560 1560 1561 1558 1560 1561 1560 1561 1563 1565 1569 1570 1572 1574 1574 1575 1576 1575 1575 1575 1575 1576 1576 1576 1576 1576 1576 1576 1576 1576 1576 1575 1574 1574 1574 1573 1572 1572 1571 1570 1568 1567 1565 1564 1562 1561 1560 1558 1557 1556 1555 1553 1552 1550 1549 1547 1546 1544
1534 1536 1526 1522 1523 1519 1518 1519 1519 1521 1524 1529 1534 1530 1525 1528 1530 1539 1558 1566 1567 1577 1579 1574 1575 1574 1573 1572 1564 1562 1562 1560 1560 1562 1561 1563 1564 1565 1568 1569 1571 1573 1573 1574 1574 1574 1574 1574 1574 1574 1574 1575 1575 1576 1576 1576 1575 1575 1575 1574 1574 1573 1573 1572 1572 1571 1570 1569 1568 1566 1565 1563 1562 1560 1559 1558 1557 1556 1554 1553 1552 1550 1549 1547 1546 1544
1527 1536 1533 1523 1524 1523 1518 1520 1525 1523 1520 1523 1527 1523 1524 1535 1538 1539 1552 1562 1569 1580 1581 1576 1576 1574 1572 1570 1565 1563 1562 1559 1561 1562 1561 1563 1564 1565 1567 1568 1571 1572 1572 1573 1573 1572 1573 1572 1573 1573 1573 1573 1574 1575 1575 1574 1574 1574 1574 1573 1573 1572 1571 1571 1571 1570 1569 1568 1567 1566 1564 1563 1561 1560 1559 1558 1556 1555 1554 1552 1551 1550 1548 1547 1545 1543
1524 1535 1539 1528 1523 1525 1524 1527 1534 1532 1524 1521 1522 1523 1525 1532 1537 1540 1544 1550 1561 1577 1582 1580 1580 1573 1564 1561 1560 1560 1560 1558 1560 1561 1560 1562 1563 1564 1565 1567 1569 1570 1570 1571 1571 1571 1571 1571 1572 1571 1571 1572 1573 1574 1573 1573 1573 1573 1573 1573 1572 1572 1570 1570 1570 1569 1569 1567 1566 1565 1564 1562 1561 1560 1559 1557 1556 1554 1553 1551 1550 1549 1547 1546 1544 1543
1525 1533 1540 1534 1526 1530 1533 1534 1535 1534 1530 1528 1530 1532 1533 1531 1533 1537 1541 1544 1552 1566 1576 1582 1584 1571 1555 1552 1554 1555 1555 1556 1557 1558 1559 1561 1562 1563 1564 1566 1567 1568 1568 1568 1568 1569 1570 1570 1571 1570 1570 1571 1571 1572 1572 1572 1573 1572 1572 1572 1571 1571 1570 1569 1569 1568 1567 1566 1565 1564 1563 1561 1560 1558 1557 1556 1555 1553 1552 1550 1549 1547 1546 1545 1543 1541
1527 1532 1539 1538 1535 1537 1537 1532 1530 1531 1530 1532 1535 1537 1537 1536 1536 1543 1549 1547 1548 1557 1566 1574 1579 1568 1551 1547 1550 1550 1552 1554 1555 1557 1559 1561 1561 1563 1564 1564 1565 1565 1566 1566 1567 1567 1568 1568 1569 1569 1569 1570 1570 1570 1571 1571 1571 1571 1571 1571 1571 1570 1569 1568 1568 1567 1566 1565 1564 1563 1561 1560 1559 1558 1556 1555 1553 1552 1551 1549 1548 1546 1545 1543 1541 1540
1527 1532 1538 1541 1540 1538 1536 1531 1531 1531 1529 1530 1534 1535 1536 1536 1538 1546 1553 1551 1551 1559 1561 1565 1572 1564 1549 1546 1548 1549 1551 1553 1554 1556 1558 1560 1561 1562 1563 1563 1563 1564 1564 1565 1565 1565 1566 1567 1568 1568 1567 1568 1568 1568 1569 1569 1569 1569 1569 1569 1569 1568 1568 1567 1567 1566 1565 1564 1562 1561 1560 1559 1558 1557 1555 1554 1552 1551 1549 1548 1546 1545 1543 1541 1540 1538
1527 1535 1540 1543 1541 1536 1532 1530 1530 1530 1530 1533 1535 1534 1535 1537 1538 1541 1546 1547 1553 1561 1560 1564 1572 1564 1549 1546 1548 1549 1551 1552 1553 1555 1556 1559 1560 1560 1562 1562 1562 1562 1563 1564 1564 1564 1565 1566 1566 1565 1565 1566 1566 1567 1568 1568 1568 1568 1568 1568 1567 1567 1567 1566 1566 1565 1564 1563 1561 1560 1559 1558 1557 1556 1554 1553 1551 1549 1548 1547 1545 1543 1542 1540 1539 1537
1531 1540 1543 1548 1553 1550 1545 1543 1540 1537 1536 1538 1539 1536 1535 1536 1536 1539 1543 1545 1553 1561 1559 1563 1571 1564 1551 1548 1549 1549 1552 1553 1553 1554 1554 1556 1557 1559 1560 1560 1560 1562 1562 1563 1563 1564 1564 1564 1564 1564 1564 1564 1565 1566 1567 1567 1567 1567 1567 1566 1566 1566 1565 1565 1564 1564 1563 1561 1560 1559 1558 1557 1556 1554 1553 1551 1550 1548 1547 1545 1544 1542 1540 1539 1537 1535
1531 1539 1540 1547 1559 1562 1561 1557 1551 1545 1542 1541 1541 1539 1537 1537 1536 1540 1545 1548 1555 1560 1558 1559 1564 1560 1553 1551 1550 1550 1552 1553 1553 1554 1554 1554 1555 1557 1557 1558 1559 1560 1561 1561 1562 1562 1562 1562 1562 1563 1563 1564 1565 1566 1567 1567 1566 1566 1566 1566 1565 1565 1564 1564 1563 1562 1561 1560 1559 1558 1557 1556 1554 1553 1552 1550 1549 1547 1546 1544 1542 1541 1539 1537 1535 1533
1532 1538 1538 1541 1548 1552 1552 1550 1545 1544 1545 1545 1545 1542 1540 1541 1540 1542 1548 1553 1556 1558 1559 1558 1558 1558 1557 1555 1553 1553 1553 1553 1554 1554 1554 1554 1555 1556 1556 1557 1558 1558 1559 1560 1560 1561 1560 1560 1561 1562 1563 1564 1564 1565 1566 1566 1566 1566 1565 1565 1565 1564 1564 1563 1562 1561 1560 1559 1558 1557 1556 1554 1553 1552 1550 1549 1547 1546 1544 1542 1541 1539 1537 1535 1533 1531
1533 1540 1540 1540 1541 1543 1542 1541 1540 1541 1543 1545 1545 1544 1543 1542 1542 1543 1547 1552 1554 1557 1562 1560 1554 1557 1560 1556 1553 1554 1553 1553 1553 1553 1553 1554 1553 1554 1555 1556 1556 1557 1558 1559 1559 1559 1559 1559 1560 1561 1562 1563 1564 1565 1565 1565 1565 1565 1565 1564 1564 1563 1562 1561 1560 1559 1558 1557 1556 1555 1554 1553 1552 1551 1549 1547 1546 1544 1543 1541 1539 1537 1535 1533 1531 1529
1535 1541 1541 1539 1541 1541 1539 1539 1539 1539 1541 1542 1543 1544 1543 1543 1542 1543 1547 1550 1551 1554 1559 1558 1554 1556 1558 1555 1553 1553 1552 1552 1553 1552 1552 1552 1553 1553 1554 1554 1555 1556 1557 1557 1558 1558 1558 1559 1560 1561 1562 1563 1563 1564 1565 1565 1564 1564 1564 1564 1563 1562 1561 1560 1559 1558 1557 1556 1555 1554 1553 1552 1551 1549 1548 1546 1544 1543 1541 1539 1538 1535 1533 1532 1530 1528
1535 1540 1539 1539 1541 1541 1539 1539 1538 1539 1540 1542 1543 1544 1544 1543 1543 1544 1546 1548 1548 1551 1555 1555 1555 1555 1554 1553 1552 1551 1552 1553 1553 1552 1552 1551 1552 1553 1553 1553 1554 1555 1556 1557 1557 1558 1558 1559 1560 1561 1562 1562 1563 1564 1564 1564 1564 1564 1564 1563 1562 1561 1560 1558 1557 1556 1556 1555 1554 1553 1552 1551 1549 1548 1546 1545 1543 1542 1540 1538 1536 1534 1532 1530 1529 1527
1534 1539 1540 1538 1542 1544 1540 1538 1540 1541 1541 1543 1546 1546 1545 1545 1546 1546 1547 1548 1550 1555 1557 1555 1556 1556 1553 1551 1552 1552 1552 1552 1552 1552 1552 1551 1551 1551 1552 1554 1555 1556 1557 1557 1558 1558 1558 1558 1559 1560 1561 1562 1562 1563 1563 1563 1563 1563 1563 1562 1561 1560 1558 1557 1556 1555 1554 1554 1553 1552 1551 1550 1548 1547 1545 1544 1542 1541 1539 1537 1535 1533 1531 1529 1527 1526
1533 1539 1541 1540 1546 1548 1541 1540 1543 1542 1541 1545 1548 1547 1545 1546 1546 1546 1546 1546 1548 1554 1557 1556 1557 1556 1552 1551 1552 1552 1552 1552 1552 1552 1552 1551 1551 1551 1553 1554 1555 1556 1557 1557 1557 1558 1558 1558 1558 1559 1560 1561 1561 1562 1562 1562 1562 1562 1561 1560 1559 1558 1557 1556 1555 1554 1553 1552 1551 1551 1550 1549 1547 1545 1544 1543 1541 1539 1538 1536 1533 1531 1529 1527 1526 1524
1535 1538 1541 1544 1549 1549 1543 1542 1544 1543 1547 1552 1549 1545 1545 1545 1545 1546 1546 1545 1546 1548 1551 1554 1554 1553 1551 1551 1552 1553 1553 1553 1553 1552 1552 1552 1552 1552 1554 1555 1555 1556 1557 1557 1558 1557 1558 1558 1559 1559 1560 1560 1561 1561 1561 1561 1560 1560 1559 1559 1558 1557 1555 1554 1553 1552 1552 1551 1550 1549 1548 1547 1546 1544 1543 1541 1539 1538 1536 1534 1532 1530 1528 1526 1524 1522
1535 1536 1541 1545 1547 1548 1547 1545 1546 1552 1559 1556 1546 1541 1543 1543 1543 1545 1546 1545 1545 1545 1546 1548 1550 1550 1550 1550 1551 1553 1553 1552 1553 1553 1553 1553 1553 1553 1555 1555 1556 1557 1557 1558 1558 1557 1558 1558 1559 1559 1560 1560 1560 1560 1560 1559 1559 1558 1558 1557 1556 1555 1554 1553 1552 1551 1551 1550 1549 1548 1546 1545 1544 1542 1541 1539 1537 1536 1534 1532 1530 1528 1526 1524 1522 1520
1535 1536 1540 1543 1545 1548 1548 1547 1555 1563 1559 1548 1541 1541 1541 1541 1542 1544 1546 1546 1545 1545 1545 1547 1549 1549 1549 1549 1550 1551 1552 1552 1553 1554 1554 1554 1554 1554 1555 1556 1556 1557 1557 1558 1558 1558 1558 1558 1559 1559 1559 1559 1559 1559 1558 1558 1557 1557 1556 1556 1555 1553 1552 1552 1551 1550 1549 1548 1547 1546 1544 1543 1542 1540 1539 1537 1535 1533 1532 1530 1528 1526 1524 1522 1520 1518
1534 1536 1539 1543 1547 1549 1550 1553 1560 1560 1550 1542 1542 1541 1540 1541 1542 1544 1548 1549 1546 1545 1545 1546 1548 1548 1547 1549 1550 1550 1552 1552 1553 1554 1554 1554 1554 1554 1555 1556 1556 1557 1557 1557 1557 1557 1558 1558 1558 1558 1558 1558 1558 1557 1557 1556 1556 1555 1555 1554 1553 1552 1551 1551 1550 1549 1547 1546 1545 1543 1542 1541 1540 1538 1536 1535 1533 1531 1530 1528 1526 1524 1522 1520 1519 1517
1533 1536 1538 1543 1548 1551 1556 1559 1558 1555 1552 1547 1543 1540 1539 1541 1541 1543 1549 1551 1547 1545 1545 1545 1547 1548 1547 1549 1550 1550 1551 1552 1553 1554 1555 1554 1554 1554 1554 1555 1556 1556 1557 1557 1557 1557 1557 1557 1557 1557 1557 1556 1556 1556 1555 1555 1554 1554 1553 1552 1552 1551 1550 1549 1548 1547 1545 1544 1543 1541 1540 1538 1537 1536 1534 1533 1531 1530 1528 1527 1525 1523 1521 1519 1517 1515
1532 1535 1537 1542 1547 1550 1555 1560 1562 1564 1560 1550 1542 1540 1539 1540 1539 1540 1547 1550 1546 1544 1544 1544 1545 1547 1547 1548 1549 1549 1550 1553 1555 1555 1554 1554 1554 1554 1554 1555 1555 1556 1556 1556 1556 1556 1556 1556 1555 1555 1555 1554 1554 1554 1553 1553 1552 1552 1551 1551 1550 1549 1548 1547 1546 1545 1543 1542 1541 1539 1538 1536 1535 1534 1532 1531 1529 1527 1526 1524 1523 1521 1519 1517 1515 1513
1534 1537 1538 1541 1546 1549 1551 1556 1562 1563 1555 1544 1540 1539 1539 1541 1539 1540 1550 1554 1547 1542 1543 1543 1544 1545 1545 1546 1548 1548 1550 1554 1556 1554 1553 1553 1554 1553 1553 1554 1554 1555 1555 1555 1555 1554 1554 1554 1553 1553 1553 1553 1552 1552 1552 1551 1551 1550 1550 1549 1548 1548 1547 1545 1544 1543 1541 1540 1539 1537 1535 1534 1533 1531 1530 1528 1526 1525 1523 1521 1520 1518 1517 1515 1513 1510
1536 1539 1541 1542 1546 1550 1551 1554 1557 1554 1547 1542 1540 1540 1540 1539 1538 1547 1559 1557 1544 1541 1543 1542 1542 1544 1544 1545 1546 1547 1549 1551 1552 1551 1551 1552 1553 1553 1553 1553 1553 1553 1553 1553 1553 1553 1553 1552 1552 1552 1552 1551 1551 1551 1550 1550 1549 1549 1548 1548 1547 1546 1545 1544 1543 1541 1539 1538 1536 1535 1533 1532 1530 1528 1527 1525 1523 1522 1520 1519 1517 1516 1514 1512 1510 1508
1540 1542 1546 1547 1547 1551 1552 1553 1554 1551 1544 1540 1539 1539 1539 1539 1544 1554 1558 1547 1538 1541 1543 1541 1542 1543 1543 1544 1545 1545 1546 1547 1547 1549 1550 1551 1551 1551 1551 1551 1551 1551 1551 1551 1551 1551 1551 1551 1551 1551 1551 1550 1550 1549 1549 1549 1548 1547 1547 1546 1545 1544 1543 1542 1540 1539 1537 1536 1534 1533 1531 1529 1528 1526 1524 1522 1520 1519 1517 1516 1514 1513 1511 1509 1507 1505
1543 1545 1549 1548 1548 1550 1551 1553 1557 1553 1542 1537 1538 1538 1538 1542 1549 1551 1544 1537 1538 1541 1540 1541 1542 1542 1542 1544 1544 1544 1545 1545 1546 1548 1548 1549 1550 1549 1549 1549 1549 1549 1550 1550 1550 1550 1550 1550 1550 1550 1549 1549 1548 1548 1548 1547 1546 1546 1545 1544 1543 1542 1541 1540 1538 1537 1535 1534 1532 1531 1529 1527 1526 1523 1522 1520 1518 1516 1515 1513 1512 1510 1508 1506 1504 1502
1539 1543 1547 1546 1546 1550 1553 1555 1559 1554 1540 1535 1538 1538 1538 1541 1543 1540 1537 1538 1540 1540 1540 1542 1542 1542 1543 1543 1543 1544 1545 1545 1546 1547 1547 1548 1548 1548 1548 1548 1548 1549 1549 1549 1549 1549 1549 1549 1548 1548 1547 1547 1547 1547 1546 1545 1545 1544 1543 1542 1541 1540 1539 1537 1536 1535 1533 1532 1530 1529 1527 1525 1524 1522 1520 1518 1516 1514 1512 1511 1509 1508 1506 1504 1502 1499
1535 1539 1544 1543 1542 1546 1551 1551 1548 1541 1533 1532 1535 1536 1535 1536 1535 1535 1536 1538 1539 1539 1540 1541 1541 1542 1543 1542 1543 1544 1544 1545 1546 1546 1546 1547 1547 1547 1547 1547 1547 1548 1548 1548 1548 1548 1547 1547 1546 1546 1546 1546 1546 1545 1545 1544 1543 1542 1541 1540 1539 1538 1537 1535 1534 1533 1531 1530 1528 1527 1525 1524 1522 1520 1518 1516 1514 1512 1510 1509 1507 1506 1504 1502 1499 1496
1534 1534 1536 1537 1537 1539 1542 1539 1534 1530 1530 1532 1532 1532 1533 1534 1534 1535 1536 1536 1537 1538 1538 1539 1541 1542 1542 1542 1543 1544 1543 1544 1545 1545 1546 1546 1546 1546 1546 1546 1547 1547 1547 1547 1547 1546 1546 1545 1545 1545 1545 1545 1544 1544 1543 1542 1542 1540 1540 1539 1538 1537 1535 1534 1533 1531 1530 1528 1526 1525 1523 1521 1519 1518 1516 1514 1512 1510 1508 1507 1505 1504 1502 1499 1496 1494
1532 1531 1531 1532 1534 1535 1535 1533 1531 1530 1530 1531 1531 1533 1534 1534 1534 1535 1535 1535 1536 1536 1537 1539 1540 1540 1541 1543 1543 1543 1543 1544 1544 1545 1545 1546 1546 1546 1546 1546 1546 1546 1546 1546 1545 1545 1545 1544 1544 1545 1544 1544 1543 1543 1542 1541 1540 1539 1538 1537 1536 1535 1533 1532 1530 1529 1527 1526 1524 1522 1520 1519 1517 1516 1514 1512 1510 1508 1506 1505 1503 1501 1498 1496 1493 1491
1531 1530 1531 1532 1534 1536 1536 1534 1532 1530 1530 1530 1532 1533 1533 1534 1535 1535 1536 1536 1536 1536 1537 1538 1538 1540 1541 1542 1542 1542 1543 1543 1543 1544 1545 1545 1546 1545 1545 1545 1545 1545 1545 1545 1544 1544 1544 1544 1544 1544 1543 1543 1543 1542 1541 1540 1539 1538 1537 1536 1535 1533 1532 1530 1528 1526 1525 1523 1522 1521 1519 1517 1515 1513 1511 1509 1508 1506 1505 1503 1501 1499 1495 1493 1490 1487
1532 1531 1531 1532 1534 1536 1537 1535 1533 1531 1530 1530 1531 1532 1533 1534 1535 1535 1536 1536 1536 1537 1537 1537 1538 1539 1540 1540 1541 1541 1542 1542 1543 1544 1544 1545 1545 1545 1545 1545 1544 1544 1544 1544 1543 1543 1544 1543 1543 1543 1542 1542 1542 1541 1540 1539 1537 1536 1535 1534 1533 1532 1530 1529 1527 1525 1524 1522 1521 1519 1517 1515 1513 1510 1508 1507 1505 1504 1502 1500 1498 1495 1493 1491 1488 1484
1531 1531 1532 1533 1534 1536 1536 1535 1533 1533 1532 1531 1531 1532 1532 1533 1534 1535 1536 1537 1537 1537 1537 1538 1538 1539 1539 1540 1540 1540 1541 1542 1543 1543 1544 1545 1545 1545 1545 1544 1544 1544 1543 1543 1543 1543 1543 1543 1543 1542 1542 1541 1540 1539 1538 1537 1536 1535 1534 1533 1532 1531 1529 1528 1526 1524 1522 1521 1519 1517 1514 1512 1510 1508 1506 1504 1503 1502 1500 1498 1495 1492 1489 1487 1486 1483
1531 1532 1532 1534 1536 1536 1535 1533 1532 1533 1534 1533 1532 1532 1532 1533 1534 1535 1536 1536 1537 1537 1537 1537 1537 1537 1538 1539 1539 1539 1541 1542 1542 1543 1544 1544 1544 1544 1544 1543 1543 1543 1542 1542 1543 1542 1542 1542 1541 1541 1540 1540 1538 1537 1536 1535 1535 1534 1533 1532 1531 1529 1527 1526 1524 1522 1521 1518 1516 1514 1512 1510 1508 1506 1504 1502 1500 1498 1496 1494 1493 1490 1486 1484 1483 1482
1529 1529 1530 1531 1533 1533 1531 1530 1531 1531 1532 1532 1532 1533 1533 1534 1534 1535 1535 1536 1536 1536 1536 1536 1536 1536 1537 1538 1539 1539 1540 1541 1542 1542 1542 1543 1544 1543 1543 1543 1542 1542 1542 1542 1542 1541 1541 1541 1540 1540 1539 1538 1537 1536 1535 1534 1533 1532 1531 1530 1529 1527 1526 1524 1522 1520 1519 1516 1514 1512 1510 1508 1506 1504 1502 1500 1497 1494 1491 1489 1488 1487 1485 1483 1480 1478